FW4174 Weather Reports


Display with metric or nautical units.
time (UTC)temp
F
wind
direction
speed
MPH
gust
MPH
rain 1hr
in
rain 24hr
in
rain mn
in
humidity
%
barometer
mb
20260503055045 59 84 13.0 20.0 0.00 0.00 0.00 41 1007.4
20260503054559 59 105 9.0 14.0 0.00 0.00 0.00 41 1007.6
20260503054047 59 136 7.0 11.0 0.00 0.00 0.00 42 1007.7
20260503053547 59 96 8.0 11.0 0.00 0.00 0.00 42 1007.7
20260503053055 59 85 8.0 10.0 0.00 0.00 0.00 41 1007.7
20260503052547 59 92 6.0 10.0 0.00 0.00 0.00 42 1007.9
20260503052047 59 90 5.0 8.0 0.00 0.00 0.00 42 1008.2
20260503051553 59 99 3.0 6.0 0.00 0.00 0.00 42 1008.5
20260503051048 59 78 2.0 4.0 0.00 0.00 0.00 43 1008.4
20260503050546 59 80 1.0 6.0 0.00 0.00 0.00 42 1008.4
20260503050055 60 98 1.0 9.0 0.00 0.00 0.00 41 1008.3
20260503045546 60 117 3.0 10.0 0.00 0.00 0.00 40 1008.4
20260503045046 60 147 3.0 14.0 0.00 0.00 0.00 40 1008.4
20260503044555 60 171 7.0 14.0 0.00 0.00 0.00 40 1008.2
20260503044045 60 196 3.0 10.0 0.00 0.00 0.00 43 1007.9
20260503043549 59 279 3.0 12.0 0.00 0.00 0.00 45 1007.8
20260503043053 59 250 6.0 12.0 0.00 0.00 0.00 45 1008.0
20260503042550 59 149 6.0 10.0 0.00 0.00 0.00 44 1008.0
20260503042047 59 135 3.0 9.0 0.00 0.00 0.00 42 1008.2
20260503041553 60 148 4.0 10.0 0.00 0.00 0.00 41 1008.1
20260503041048 60 165 6.0 10.0 0.00 0.00 0.00 40 1008.0
20260503040546 60 160 6.0 15.0 0.00 0.00 0.00 39 1008.0
20260503040058 61 148 7.0 15.0 0.00 0.00 0.00 38 1008.0
20260503035545 61 162 8.0 17.0 0.00 0.00 0.00 37 1008.1
20260503035048 61 155 7.0 17.0 0.00 0.00 0.00 37 1008.3
20260503034551 60 147 11.0 17.0 0.00 0.00 0.00 38 1008.4
20260503034045 60 205 5.0 16.0 0.00 0.00 0.00 40 1008.7
20260503033545 60 243 6.0 16.0 0.00 0.00 0.00 41 1008.7
20260503033052 60 143 7.0 12.0 0.00 0.00 0.00 40 1008.9
20260503032547 60 0 2.0 13.0 0.00 0.00 0.00 41 1008.9
20260503032044 60 257 5.0 14.0 0.00 0.00 0.00 40 1009.3
20260503031553 60 183 9.0 14.0 0.00 0.00 0.00 40 1009.0
20260503031047 59 146 6.0 11.0 0.00 0.00 0.00 42 1009.0
20260503030546 59 161 5.0 11.0 0.00 0.00 0.00 42 1009.1
20260503030056 59 143 4.0 11.0 0.00 0.00 0.00 42 1009.1
20260503025545 59 133 6.0 11.0 0.00 0.00 0.00 41 1009.1
20260503025045 59 121 3.0 7.0 0.00 0.00 0.00 43 1009.1
20260503024551 59 131 3.0 6.0 0.00 0.00 0.00 43 1009.1
20260503024045 59 144 3.0 7.0 0.00 0.00 0.00 43 1009.2
20260503023545 59 148 3.0 9.0 0.00 0.00 0.00 43 1009.1
20260503023101 59 152 5.0 9.0 0.00 0.00 0.00 42 1009.2
20260503022546 59 170 7.0 9.0 0.00 0.00 0.00 42 1009.3
20260503022047 59 152 6.0 9.0 0.00 0.00 0.00 42 1009.3
20260503021555 59 170 5.0 8.0 0.00 0.00 0.00 44 1009.4
20260503021045 59 158 4.0 8.0 0.00 0.00 0.00 43 1009.4
20260503020545 60 159 2.0 5.0 0.00 0.00 0.00 43 1009.6
20260503020057 60 166 2.0 5.0 0.00 0.00 0.00 42 1009.6
20260503015545 60 252 2.0 5.0 0.00 0.00 0.00 41 1009.7
20260503015045 60 240 2.0 5.0 0.00 0.00 0.00 41 1009.8
20260503014549 61 203 2.0 5.0 0.00 0.00 0.00 40 1009.7
20260503014045 61 232 2.0 5.0 0.00 0.00 0.00 40 1009.8
20260503013547 61 186 2.0 5.0 0.00 0.00 0.00 40 1009.9
20260503013055 61 231 2.0 5.0 0.00 0.00 0.00 40 1010.0
20260503012547 62 210 1.0 5.0 0.00 0.00 0.00 39 1009.9
20260503012044 62 238 2.0 6.0 0.00 0.00 0.00 38 1010.0
20260503011612 63 163 2.0 7.0 0.00 0.00 0.00 37 1010.0
20260503011045 63 172 2.0 7.0 0.00 0.00 0.00 36 1010.1
20260503010547 63 229 2.0 7.0 0.00 0.00 0.00 36 1010.1
20260503010057 64 248 2.0 6.0 0.00 0.00 0.00 35 1010.1
20260503005550 64 256 3.0 6.0 0.00 0.00 0.00 35 1010.2
20260503005045 64 261 2.0 6.0 0.00 0.00 0.00 35 1010.3
20260503004618 64 208 2.0 6.0 0.00 0.00 0.00 34 1010.4
20260503004044 64 240 3.0 8.0 0.00 0.00 0.00 33 1010.5
20260503003544 64 244 3.0 8.0 0.00 0.00 0.00 32 1010.5
20260503003053 64 253 2.0 6.0 0.00 0.00 0.00 32 1010.6
20260503002545 64 263 3.0 9.0 0.00 0.00 0.00 33 1010.6
20260503002046 65 240 3.0 9.0 0.00 0.00 0.00 32 1010.8
20260503001552 65 237 4.0 8.0 0.00 0.00 0.00 31 1010.6
20260503001045 65 249 4.0 12.0 0.00 0.00 0.00 31 1010.8
20260503000545 65 262 6.0 14.0 0.00 0.00 0.00 31 1010.9
20260503000104 66 249 9.0 14.0 0.00 0.00 0.00 30 1010.9
20260502235545 66 246 8.0 13.0 0.00 0.00 0.00 30 1010.9
20260502235045 66 246 7.0 12.0 0.00 0.00 0.00 30 1011.0
20260502234601 66 246 7.0 11.0 0.00 0.00 0.00 30 1011.0
20260502234049 66 227 7.0 13.0 0.00 0.00 0.00 30 1011.1
20260502233547 66 215 9.0 19.0 0.00 0.00 0.00 29 1011.0
20260502233055 66 240 12.0 20.0 0.00 0.00 0.00 28 1011.0
20260502232547 66 253 15.0 20.0 0.00 0.00 0.00 29 1011.0
20260502232048 67 221 14.0 21.0 0.00 0.00 0.00 27 1011.0
20260502231556 67 248 14.0 21.0 0.00 0.00 0.00 27 1011.0
20260502231049 67 238 13.0 21.0 0.00 0.00 0.00 28 1011.0
20260502230548 67 252 13.0 20.0 0.00 0.00 0.00 29 1011.0
20260502230056 67 215 15.0 20.0 0.00 0.00 0.00 29 1011.1
20260502225545 67 244 14.0 21.0 0.00 0.00 0.00 29 1011.1
20260502225044 68 237 14.0 21.0 0.00 0.00 0.00 29 1011.1
20260502224552 68 286 8.0 20.0 0.00 0.00 0.00 29 1011.1
20260502224047 68 245 14.0 20.0 0.00 0.00 0.00 28 1011.2
20260502223544 69 243 15.0 21.0 0.00 0.00 0.00 27 1011.2
20260502223053 69 243 13.0 21.0 0.00 0.00 0.00 29 1011.3
20260502222545 69 242 13.0 20.0 0.00 0.00 0.00 28 1011.4
20260502222044 68 230 11.0 20.0 0.00 0.00 0.00 30 1011.3
20260502221609 68 251 9.0 20.0 0.00 0.00 0.00 28 1011.5
20260502221045 68 253 11.0 20.0 0.00 0.00 0.00 29 1011.6
20260502220548 68 235 11.0 22.0 0.00 0.00 0.00 28 1011.7
20260502220103 68 227 13.0 22.0 0.00 0.00 0.00 29 1011.7
20260502215545 68 269 13.0 19.0 0.00 0.00 0.00 29 1011.7
20260502215045 69 250 10.0 17.0 0.00 0.00 0.00 28 1011.9
20260502214551 69 223 3.0 17.0 0.00 0.00 0.00 29 1011.8
20260502214101 68 250 11.0 17.0 0.00 0.00 0.00 29 1012.0
20260502213548 68 227 10.0 19.0 0.00 0.00 0.00 28 1012.0
20260502213051 68 240 5.0 19.0 0.00 0.00 0.00 28 1012.1
20260502212545 69 239 9.0 17.0 0.00 0.00 0.00 29 1012.2
20260502212045 69 246 4.0 17.0 0.00 0.00 0.00 30 1012.3
20260502211553 69 239 10.0 17.0 0.00 0.00 0.00 27 1012.4
20260502211045 69 258 6.0 16.0 0.00 0.00 0.00 28 1012.6
20260502210544 69 233 7.0 21.0 0.00 0.00 0.00 29 1012.6
20260502210108 69 224 7.0 21.0 0.00 0.00 0.00 29 1012.7
20260502205544 69 246 11.0 19.0 0.00 0.00 0.00 29 1012.7
20260502205044 69 217 6.0 14.0 0.00 0.00 0.00 28 1012.9
20260502204554 68 244 2.0 14.0 0.00 0.00 0.00 31 1012.9
20260502204044 68 247 6.0 20.0 0.00 0.00 0.00 29 1013.1
20260502203544 68 234 7.0 20.0 0.00 0.00 0.00 29 1013.1
20260502203051 68 237 4.0 15.0 0.00 0.00 0.00 31 1013.2
20260502202545 68 254 5.0 20.0 0.00 0.00 0.00 29 1013.3
20260502202046 68 221 6.0 20.0 0.00 0.00 0.00 29 1013.5
20260502201552 67 244 4.0 17.0 0.00 0.00 0.00 31 1013.4
20260502201048 67 317 4.0 17.0 0.00 0.00 0.00 31 1013.4
20260502200545 67 218 12.0 17.0 0.00 0.00 0.00 30 1013.5
20260502200114 66 258 5.0 17.0 0.00 0.00 0.00 31 1013.6
20260502195546 66 213 12.0 17.0 0.00 0.00 0.00 31 1013.8
20260502195044 66 240 7.0 15.0 0.00 0.00 0.00 31 1013.9
20260502194553 66 257 5.0 16.0 0.00 0.00 0.00 30 1014.0
20260502194044 67 244 4.0 18.0 0.00 0.00 0.00 31 1014.3
20260502193545 66 236 9.0 18.0 0.00 0.00 0.00 31 1014.4
20260502193053 66 254 4.0 12.0 0.00 0.00 0.00 31 1014.4
20260502192546 67 248 2.0 9.0 0.00 0.00 0.00 31 1014.5
20260502192044 67 289 3.0 15.0 0.00 0.00 0.00 33 1014.6
20260502191558 67 220 6.0 15.0 0.00 0.00 0.00 30 1014.8
20260502191050 67 281 5.0 12.0 0.00 0.00 0.00 32 1014.8
20260502190544 66 293 3.0 13.0 0.00 0.00 0.00 33 1014.9
20260502190056 66 250 7.0 14.0 0.00 0.00 0.00 32 1015.0
20260502185545 65 175 4.0 20.0 0.00 0.00 0.00 32 1015.1
20260502185046 65 323 9.0 20.0 0.00 0.00 0.00 32 1015.3
20260502184553 65 219 11.0 20.0 0.00 0.00 0.00 32 1015.2
20260502184045 64 244 6.0 16.0 0.00 0.00 0.00 32 1015.4
20260502183548 64 244 6.0 19.0 0.00 0.00 0.00 33 1015.4
20260502183054 64 242 7.0 19.0 0.00 0.00 0.00 32 1015.5
20260502182547 64 248 2.0 16.0 0.00 0.00 0.00 34 1015.5
20260502182045 64 202 12.0 16.0 0.00 0.00 0.00 31 1015.6
20260502181552 64 235 5.0 15.0 0.00 0.00 0.00 32 1015.6
20260502181044 64 263 5.0 15.0 0.00 0.00 0.00 33 1015.7
20260502180547 64 253 6.0 12.0 0.00 0.00 0.00 33 1015.7
20260502170105 61 243 7.0 15.0 0.00 0.00 0.00 33 1017.1
20260502164044 59 227 8.0 17.0 0.00 0.00 0.00 34 1017.4
20260502163545 59 264 3.0 14.0 0.00 0.00 0.00 35 1017.4
20260502163100 59 234 5.0 14.0 0.00 0.00 0.00 34 1017.5
20260502162545 60 269 7.0 13.0 0.00 0.00 0.00 35 1017.6
20260502162048 60 240 4.0 11.0 0.00 0.00 0.00 35 1017.6
20260502161601 60 273 2.0 12.0 0.00 0.00 0.00 37 1017.7
20260502161047 59 236 5.0 14.0 0.00 0.00 0.00 36 1017.7
20260502160544 58 245 7.0 14.0 0.00 0.00 0.00 35 1017.7
20260502152045 55 246 10.0 15.0 0.00 0.00 0.00 38 1018.2
20260502151606 55 244 9.0 13.0 0.00 0.00 0.00 38 1018.2
20260502151047 55 242 6.0 13.0 0.00 0.00 0.00 40 1018.3
20260502150544 55 246 6.0 14.0 0.00 0.00 0.00 39 1018.3
20260502130545 45 245 9.0 13.0 0.00 0.00 0.00 62 1019.0
20260502130103 44 245 10.0 13.0 0.00 0.00 0.00 64 1019.0
20260502123544 39 236 4.0 7.0 0.00 0.00 0.00 74 1019.0
20260502123050 39 257 3.0 7.0 0.00 0.00 0.00 76 1018.9
20260502122544 38 226 4.0 7.0 0.00 0.00 0.00 76 1019.0
20260502122045 37 234 4.0 8.0 0.00 0.00 0.00 76 1019.0
20260502121553 37 223 4.0 9.0 0.00 0.00 0.00 76 1019.0
20260502121046 36 240 6.0 9.0 0.00 0.00 0.00 76 1019.0
20260502120545 36 244 5.0 8.0 0.00 0.00 0.00 76 1018.9
20260502115544 35 240 4.0 6.0 0.00 0.00 0.00 77 1019.0
20260502115044 35 242 3.0 5.0 0.00 0.00 0.00 77 1019.0
20260502114551 34 256 3.0 4.0 0.00 0.00 0.00 77 1019.1
20260502114045 34 244 2.0 5.0 0.00 0.00 0.00 77 1018.9
20260502113544 34 246 2.0 5.0 0.00 0.00 0.00 77 1018.9
20260502113053 34 239 3.0 5.0 0.00 0.00 0.00 77 1018.9
20260502112546 34 236 3.0 6.0 0.00 0.00 0.00 77 1018.9
20260502112044 34 246 3.0 6.0 0.00 0.00 0.00 76 1018.9
20260502111550 34 234 3.0 7.0 0.00 0.00 0.00 76 1018.9
20260502111046 34 232 3.0 7.0 0.00 0.00 0.00 75 1019.0
20260502110546 35 236 4.0 7.0 0.00 0.00 0.00 75 1019.0
20260502105545 35 236 4.0 8.0 0.00 0.00 0.00 74 1019.0
20260502105044 35 242 5.0 8.0 0.00 0.00 0.00 74 1019.0
20260502104550 36 245 5.0 8.0 0.00 0.00 0.00 74 1019.1
20260502104044 35 237 5.0 8.0 0.00 0.00 0.00 74 1019.0
20260502103545 35 235 6.0 8.0 0.00 0.00 0.00 75 1019.1
20260502103054 35 240 5.0 8.0 0.00 0.00 0.00 75 1019.1
20260502102545 35 241 5.0 7.0 0.00 0.00 0.00 76 1019.0
20260502102047 34 240 4.0 7.0 0.00 0.00 0.00 75 1019.1
20260502101557 34 228 3.0 6.0 0.00 0.00 0.00 75 1019.0
20260502101046 35 232 3.0 6.0 0.00 0.00 0.00 75 1018.9
20260502100545 35 241 3.0 5.0 0.00 0.00 0.00 75 1018.9
20260502091045 37 238 2.0 5.0 0.00 0.00 0.00 71 1018.8
20260502090544 37 246 3.0 7.0 0.00 0.00 0.00 71 1018.8
20260502090113 37 240 4.0 7.0 0.00 0.00 0.00 71 1018.7
20260502071047 37 242 4.0 5.0 0.00 0.00 0.00 71 1019.0
20260502070546 37 236 3.0 5.0 0.00 0.00 0.00 70 1019.0
20260502070106 37 238 3.0 5.0 0.00 0.00 0.00 70 1018.9
20260502065548 37 236 3.0 5.0 0.00 0.00 0.00 70 1019.2
20260502065048 37 246 3.0 5.0 0.00 0.00 0.00 70 1019.2
20260502064610 37 244 2.0 4.0 0.00 0.00 0.00 69 1019.1
20260502064047 37 253 2.0 5.0 0.00 0.00 0.00 69 1019.1
20260502063547 37 244 3.0 7.0 0.00 0.00 0.00 69 1019.3
20260502063057 38 241 4.0 7.0 0.00 0.00 0.00 69 1019.3